Regional Weather Roundup
Issued by NWS Boston, MA

Current Version | Previous Version | Text Only | Print | Product List | Glossary Off
Versions: 1 2 3 4 5 6 7 8 9 10 11 12 13 14 15 16 17 18 19 20 21 22 23 24 25 26 27 28 29 30 31 32 33 34 35 36 37 38 39 40 41 42 43 44 45 46 47 48 49 50
963 ASUS41 KBOX 191510 RWRBOX REGIONAL WEATHER ROUNDUP NATIONAL WEATHER SERVICE BOSTON/NORTON MA 1100 AM EDT FRI OCT 19 2018 NOTE: "FAIR" INDICATES FEW OR NO CLOUDS BELOW 12,000 FEET WITH NO SIGNIFICANT WEATHER AND/OR OBSTRUCTIONS TO VISIBILITY. MAZALL-191600- EASTERN MASSACHUSETTS CITY SKY/WX TMP DP RH WIND PRES REMARKS BOSTON NOT AVBL BEVERLY FAIR 49 32 52 W10 30.15F LAWRENCE FAIR 51 33 50 SW9 30.17F BEDFORD FAIR 51 33 50 W12G18 30.15F BLUE HILL N/A 48 31 51 SW12G21 30.16F NORWOOD FAIR 53 33 46 SW13G20 30.18F MARSHFIELD FAIR 52 32 46 SW8G15 30.18F PLYMOUTH FAIR 54 32 43 SW12 30.20F TAUNTON FAIR 53 32 44 W14G20 30.20F NEW BEDFORD FAIR 53 34 48 W12G17 30.20F $$ MAZALL-191600- CAPE COD AND THE ISLANDS CITY SKY/WX TMP DP RH WIND PRES REMARKS FALMOUTH FAIR 54 37 54 SW18 30.21F HYANNIS FAIR 55 37 50 W15 30.19F CHATHAM FAIR 53 36 52 MISG 30.22F PROVINCETOWN FAIR 51 35 54 SW16 30.20F NANTUCKET FAIR 55 35 47 W16G24 30.23F MARTHAS VNYRD FAIR 54 40 59 SW15G22 30.21F $$ MAZALL-191600- CENTRAL AND WESTERN MASSACHUSETTS CITY SKY/WX TMP DP RH WIND PRES REMARKS WORCESTER FAIR 47 33 58 W20G26 30.16F FITCHBURG FAIR 48 32 53 W9 30.17F ORANGE FAIR 49 31 49 S9 30.17F SPRINGFIELD MOSUNNY 48 30 50 S8 30.18F WESTFIELD FAIR 49 32 52 S9 30.19F NORTH ADAMS FAIR 51 35 54 W13 30.15F PITTSFIELD FAIR 48 31 51 SW5 30.15F $$ RIZALL-191600- RHODE ISLAND CITY SKY/WX TMP DP RH WIND PRES REMARKS PROVIDENCE FAIR 52 32 46 SW9 30.22F NEWPORT FAIR 52 34 50 SW8 30.21F SMITHFIELD FAIR 50 31 48 SW8 30.20F WESTERLY FAIR 54 42 64 SW12G18 30.24F $$ CTZALL-191600- CONNECTICUT CITY SKY/WX TMP DP RH WIND PRES REMARKS BRADLEY INTL FAIR 50 31 48 SW8 30.20F HARTFORD FAIR 50 31 48 VRB6 30.22F BRIDGEPORT FAIR 52 34 50 W10 30.25F DANBURY FAIR 49 33 54 W12 30.24F GROTON FAIR 53 40 61 W12 30.23F NEW HAVEN FAIR 51 34 52 SW10 30.24F CHESTER FAIR 50 32 50 W7 30.22F MERIDEN FAIR 50 32 50 VRB6 30.23F WILLIMANTIC FAIR 50 32 50 SW8 30.22F OXFORD FAIR 47 33 58 SW7 30.22F $$ MEZ002-015-021-024-NHZ003-005-008-011-012-014-VTZ005-008-191600- NORTHERN NEW ENGLAND CITY SKY/WX TMP DP RH WIND PRES REMARKS PORTLAND ME FAIR 48 33 56 W10 30.11F BANGOR ME FAIR 44 27 51 S9 30.09F CONCORD NH FAIR 47 34 60 S8 30.13F MANCHESTER NH FAIR 48 32 53 SW9 30.13F NASHUA NH FAIR 49 34 56 VRB7 30.15F PORTSMOUTH NH MOSUNNY 48 31 53 SW9 30.12 JAFFREY NH FAIR 45 33 63 S10 30.14F KEENE NH FAIR 47 33 58 SW10 30.15F BURLINGTON VT FAIR 49 34 56 S16 30.04F MT. WASHINGTON MOSUNNY 25 23 93 W60G69 N/A WCI 3 $$ NYZ052-076-191600- EASTERN NEW YORK CITY SKY/WX TMP DP RH WIND PRES REMARKS ALBANY FAIR 46 32 58 S8 30.18F NEW YORK CITY FAIR 53 31 42 SW13 30.26F $$ ANZALL-191600- MARINE OBSERVATIONS STATION/POSITION TIME TEMP WIND PRES VSBY WAVE AIR SEA DIR/SP/G HT/PER (UTC) (F) (DEG/KT/KT) (MB) (MI) (FT/S) BOSTON BUOY 1450 47 57 230/ 16/ 19 1021.4F 2/ 3 BUZZARDS BAY 1400 50 260/ 19/ 21 1024.4F NANTUCKET SOUND 1440 52 60 240/ 17/ 21 1023.4F MASS BAY-STELLWA 1404 45 56 250/ 16/ 19 1021.4F 1 7/8 3/ 4 ISLE OF SHOALS 1400 43 240/ 14/ 16 1021.3F S OF BLOCK IS 1443 63 N/A 3/ 4 $$ ......................KEY......................... SKY/WX - SKY CONDITION/PRESENT WEATHER TMP - TEMPERATURE IN FAHRENHEIT DWPT - DEWPOINT IN FAHRENHEIT RH - RELATIVE HUMIDITY IN PERCENT WIND - DIRECTION AND SPEED IN MPH PRES - MEAN SEA LEVEL PRESSURE IN INCHES OF HG WCI - WIND CHILL INDEX VSB - VISIBILITY IN MILES HX - HEAT INDEX TC - TEMPERATURE IN CELSIUS VRB - VARIABLE WIND DIRECTION N/A - NOT AVAILABLE

USA.gov is the U.S. government's official web portal to all federal, state and local government web resources and services.